Tracking 21612 objects as of 20-Oct-2020
HD Live streaming from Space Station
objects crossing your sky now

COSMOS 1481 DEB

Track COSMOS 1481 DEB now!


NORAD ID: 27907
Int'l Code: 1983-070J
Perigee: 2,455.4 km
Apogee: 38,278.6 km
Inclination: 69.0 °
Period: 725.2 minutes
Semi major axis: 26737 km
RCS: 0.1866 m2 (medium)
Launch date: July 8, 1983
Source: Commonwealth of Independent States (former USSR) (CIS)
Launch site: PLESETSK MISSILE AND SPACE COMPLEX (PKMTR)

Note: This is SATELLITE DEBRIS
aabbcc
Your satellite tracking list
Your tracking list is empty




NASA's NSSDC Master Catalog

Two Line Element Set (TLE):
1 27907U 83070J   20292.46387689 -.00000375 +00000-0 +00000-0 0  9995
2 27907 068.9539 349.7278 6698942 332.4619 004.4042 01.98568595167902
Source of the keplerian elements: AFSPC